Change the Weather History Date:

Monday, February 17, 2014

  Actual Average Record
Temperature  
Mean Temperature 67 °F -  
Max Temperature 76 °F 76 °F 88 °F (1942)
Min Temperature 58 °F 55 °F 34 °F (1958)
Cooling Degree Days 2    
Growing Degree Days 17 (Base 50)    
Moisture  
Dew Point 60 °F    
Average Humidity 78    
Maximum Humidity 94    
Minimum Humidity 60    
Precipitation  
Precipitation 0.00 in - - ()
Sea Level Pressure  
Sea Level Pressure 30.19 in    
Wind  
Wind Speed 6 mph (NE)    
Max Wind Speed 16 mph    
Max Gust Speed 20 mph    
Visibility 10 miles    
Events      
Averages and records for this station are not official NWS values.
T = Trace of Precipitation, MM = Missing Value Source: NWS Daily Summary

Daily Weather History Graph

Daily Weather History Graph

Search for Another Location

Airport or City:

Trip Planner

Search our weather history database for the weather conditions in past years. The results will help you decide how hot, cold, wet, or windy it might be!

Date:

Astronomy

Feb. 17, 2014 Rise Set
Actual Time 6:54 AM EST 6:16 PM EST
Civil Twilight 6:31 AM EST 6:39 PM EST
Nautical Twilight 6:04 AM EST 7:06 PM EST
Astronomical Twilight 5:37 AM EST 7:33 PM EST
Moon 8:47 PM EST (2/17) 8:13 AM EST (2/17)
Length of Visible Light 12h 08m
Length of Day
11h 21m
Waning Gibbous, 93% of the Moon is Illuminated
Feb 17
Waning Gibbous
Feb 22
Last Quarter
Mar 1
New
Mar 8
First Quarter
Mar 16
Full

Hourly Weather History & Observations

Time (EST) Temp. Dew Point Humidity Pressure Visibility Wind Dir Wind Speed Gust Speed Precip Events Conditions
12:58 AM 59.4 °F 56.3 °F 90% 30.17 in 10.0 mi NNW 1.2 mph - N/A   Clear
1:58 AM 58.8 °F 56.5 °F 92% 30.16 in 10.0 mi NNW 3.5 mph - N/A   Clear
2:58 AM 59.2 °F 56.5 °F 91% 30.15 in 10.0 mi North 3.5 mph - N/A   Clear
3:58 AM 58.5 °F 56.3 °F 93% 30.15 in 10.0 mi North 3.5 mph - N/A   Clear
4:58 AM 58.1 °F 55.9 °F 93% 30.16 in 10.0 mi NNW 2.3 mph - N/A   Clear
5:58 AM 58.5 °F 56.7 °F 94% 30.17 in 10.0 mi North 2.3 mph - N/A   Clear
6:58 AM 59.4 °F 57.0 °F 92% 30.19 in 10.0 mi North 5.8 mph - N/A   Clear
7:58 AM 61.7 °F 59.0 °F 91% 30.20 in 10.0 mi North 2.3 mph - N/A   Clear
8:58 AM 68.4 °F 61.5 °F 79% 30.22 in 10.0 mi NNE 5.8 mph - N/A   Clear
9:58 AM 74.3 °F 62.6 °F 67% 30.23 in 10.0 mi NE 11.5 mph - N/A   Clear
10:58 AM 75.7 °F 61.7 °F 62% 30.23 in 10.0 mi ENE 12.7 mph 19.6 mph N/A   Clear
11:58 AM 75.9 °F 61.3 °F 60% 30.21 in 10.0 mi East 11.5 mph - N/A   Clear
12:58 PM 76.1 °F 62.1 °F 62% 30.19 in 10.0 mi ENE 16.1 mph 19.6 mph N/A   Clear
1:58 PM 75.6 °F 62.4 °F 64% 30.17 in 10.0 mi ENE 13.8 mph 19.6 mph N/A   Clear
2:58 PM 75.4 °F 62.2 °F 64% 30.17 in 10.0 mi East 12.7 mph - 0.00 in   Clear
3:58 PM 75.0 °F 61.9 °F 64% 30.16 in 10.0 mi ENE 13.8 mph - N/A   Clear
4:58 PM 73.9 °F 61.2 °F 64% 30.17 in 10.0 mi ENE 12.7 mph - N/A   Clear
5:58 PM 71.8 °F 61.5 °F 70% 30.19 in 10.0 mi ENE 8.1 mph - N/A   Clear
6:58 PM 68.2 °F 61.3 °F 79% 30.19 in 10.0 mi ENE 6.9 mph - N/A   Clear
7:58 PM 65.5 °F 60.1 °F 83% 30.20 in 10.0 mi NE 6.9 mph - N/A   Clear
8:58 PM 66.9 °F 59.9 °F 78% 30.21 in 10.0 mi East 6.9 mph - N/A   Clear
9:58 PM 67.8 °F 61.2 °F 79% 30.22 in 10.0 mi East 5.8 mph - N/A   Clear
10:58 PM 67.6 °F 61.0 °F 79% 30.22 in 10.0 mi East 5.8 mph - N/A   Clear
11:58 PM 68.0 °F 61.7 °F 80% 30.21 in 10.0 mi East 5.8 mph - N/A   Clear